{"data":{"norad_id":57911,"intl_designator":"2023-146W","name":"STARLINK-30478","alt_names":[],"object_type":"PAYLOAD","status":"ACTIVE","operator":null,"country":"US","launch_date":"2023-09-20","launch_site_code":"AFETR","launch_vehicle":null,"mission":null,"orbit_class":"UNKNOWN","rcs_meters":null,"size_class":null,"mass_kg":null,"dimensions":null,"purposes":["comms"],"wikipedia_slug":null,"has_3d_model":false,"image_url":null,"decayed_at":null,"tle_current":{"epoch":"2026-05-24T23:07:27.398784Z","epoch_age_seconds":75261,"freshness":"FRESH","line1":"1 57911U 23146W   26144.96351156  .00006916  00000+0  26081-3 0  9993","line2":"2 57911  43.0017 243.2436 0001384 276.8428  83.2266 15.27555202148720","mean_motion":15.27555202,"eccentricity":0.0001384,"inclination_deg":43.0017,"raan_deg":243.2436,"arg_perigee_deg":276.8428,"mean_anomaly_deg":83.2266,"bstar":0.00026081,"rev_number":14872,"period_min":94.268279019615,"perigee_km":482.1737527446,"apogee_km":484.07294960981,"semimajor_km":6861.2603511772,"source":"CELESTRAK","updated_at":"2026-05-25T13:38:18.455797Z"}}}